カタログに戻る

ATLAS 5 CENTAUR R/B

運用中MEO
NORAD 49819·ROCKET BODY·🇺🇸 United States

打ち上げ Dec 7, 2021 から Cape Canaveral Space Force Station

Loading…

次のパス (今後24時間)

TLE

最新Source: Space-Track

元期: Sep 14, 2026, 09:29 UTC

1 49819U 21118C   26257.39540736 -.00000179  00000-0  00000-0 0  9991
2 49819   4.7543  77.4113 0284179 208.5690 150.1557  0.94820331 16539

AllMySatでATLAS 5 CENTAUR R/Bをリアルタイム追跡

Download on the App Store